Location: Wien
(48.2082°N, 16.3738°E)
Time: 19:21:43
(UTC+02:00)

Transit 4A - Pass Details

Date: 01 March 2024
Orbit: 871 x 972 km, 66.8° (Epoch: 20 April)

Event Time Altitude Azimuth Distance (km) Brightness Sun altitude
Exits shadow 04:01:26 11° 328° (NNW) 2,487 10.0 -26.1°
Maximum altitude 04:03:31 13° 350° (N) 2,343 10.1 -25.8°
Drops below altitude 10° 04:06:18 10° 18° (NNE) 2,564 10.6 -25.3°
Sets 04:10:20 0° 45° (NE) 3,487 11.9 -24.7°
